{"data":{"norad_id":47256,"intl_designator":"2020-099A","name":"CMS-01","alt_names":[],"object_type":"PAYLOAD","status":"ACTIVE","operator":null,"country":"IND","launch_date":"2020-12-17","launch_site_code":"SRILR","launch_vehicle":null,"mission":null,"orbit_class":"UNKNOWN","rcs_meters":null,"size_class":null,"mass_kg":null,"dimensions":null,"purposes":["comms"],"wikipedia_slug":null,"has_3d_model":false,"image_url":null,"decayed_at":null,"tle_current":{"epoch":"2026-09-19T23:32:21.576192Z","epoch_age_seconds":66907,"freshness":"FRESH","line1":"1 47256U 20099A   26262.98080528 -.00000169  00000+0  00000+0 0  9997","line2":"2 47256   0.0560  92.1942 0004961 161.9699 180.8174  1.00272086 21148","mean_motion":1.00272086,"eccentricity":0.0004961,"inclination_deg":0.056,"raan_deg":92.1942,"arg_perigee_deg":161.9699,"mean_anomaly_deg":180.8174,"bstar":0,"rev_number":2114,"period_min":1436.0925931071,"perigee_km":35765.592698511,"apogee_km":35807.42846184,"semimajor_km":42164.647580175,"source":"CELESTRAK","updated_at":"2026-09-20T09:00:35.296770Z"}}}